Погода в Эмбе

Казахстан     48°49′51″N   58°08′55″E
темп.,
°C
ветер,
м/с
пор.,
м/с
влажн.,
%
обл.,
%
осадки,
мм/ч
давл.,
гПа
погр.,
м
2 марта, вт
вт223:00−17з4598100 0.1 102494
02:00−18зюз3499100 0.1 102449
05:00−19зюз34100100 0.1 102561
08:00−19зюз46100100 0.1 1025105
11:00−16з5897100 0.1 1025307
14:00−13зюз5892100 0.0 1024382
17:00−12зюз599293 0.0 1023410
20:00−13ююз589762 0.0 1022120
3 марта, ср
ср323:00−9юз6149580 0.1 1021396
02:00−5юз71494100 0.1 1019626
05:00−4юз71395100 0.3 1017588
08:00−5ююз81495100 0.1 1015429
11:00−3юз101594100 0.3 1015818
14:00−1юз111595100 0.4 1013959
17:000юз101596100 1.1 1011983
20:000юз101697100 1.4 1011976
4 марта, чт
чт423:00−1юз91496100 2.6 1010745
02:00−2юз81496100 0.8 1009630
05:00−2зюз81396100 1.6 1010785
08:00−4з61195100 0.6 1011451
11:00−6з71093100 0.6 1014565
14:00−6з71090100 0.1 1016682
17:00−6з71090100 0.2 1018729
20:00−7з61089100 0.1 1021623
5 марта, пт
пт523:00−11юз589684 0.1 1023132
02:00−11юз6129537 0.0 1023251
05:00−9ююз7159219 0.0 1023287
08:00−9юз815898 0.0 1024318
11:00−6ююз915844 0.0 1023488
14:00−3юз1016790 0.0 1023693
17:00−3юз814820 0.0 1022536
20:00−6ююз613870 0.0 1022269
6 марта, сб
сб623:00−7ююз610861 0.0 1023157
02:00−8ююз588749 0.0 1022125
05:00−9ююз578933 0.0 102194
08:00−8ююз459561 0.0 102198
11:00−4ююз579680 0.1 1021255
14:00−1юз699674 0.0 1020421
17:000юз6109464 0.0 1019394
20:00−4ююз5109546 0.0 1018182